Tracking 19817 objects as of 18-Aug-2019
HD Live streaming from Space Station
objects crossing your sky now

COSMOS 2251 DEB

Track COSMOS 2251 DEB now!
10-day predictions


NORAD ID: 35782
Int'l Code: 1993-036ASC
Perigee: 582.2 km
Apogee: 616.5 km
Inclination: 74.0 °
Period: 96.5 minutes
Semi major axis: 6970 km
RCS: 0.0131 m2 (small)
Launch date: June 16, 1993
Source: Commonwealth of Independent States (former USSR) (CIS)
Launch site: PLESETSK MISSILE AND SPACE COMPLEX (PKMTR)

Note: This is SATELLITE DEBRIS
aabbcc
Your satellite tracking list
Your tracking list is empty




NASA's NSSDC Master Catalog

Two Line Element Set (TLE):
1 35782U 93036ASC 19228.10530818 +.00001825 +00000-0 +18369-3 0  9990
2 35782 073.9707 139.8800 0024567 211.4884 148.4829 14.91840461338492
Source of the keplerian elements: AFSPC